Weather in Pron'

Russia / Tula Oblast     54°02′11″N   38°32′08″E
temp.,
°C
wind,
m/s
gust,
m/s
humid.,
%
clouds,
%
prec.,
mm/h
press.,
hPa
HPBL,
m
22 september, wed
wed2200:00+8ne1296100 0.1 101061
03:00+7nne2398100 0.9 1010188
06:00+7nne2396100 1.3 1010166
09:00+7n0092100 1.3 1010137
12:00+7nne0093100 0.6 1011184
15:00+9ene118879 1.3 1011316
18:00+9ene239073 0.3 101266
21:00+8e2494100 0.4 1013125
23 september, thu
thu2300:00+8e2295100 1.4 101277
03:00+8ese1195100 2.7 101320
06:00+8ene1194100 0.6 101319
09:00+9ssw1287100 1.4 1013134
12:00+10ssw3473100 0.1 1012746
15:00+9sw3582100 0.6 1012387
18:00+9s3679100 0.2 1011184
21:00+8ssw488479 0.4 1011299
24 september, fri
fri2400:00+6s389033 0.0 1011208
03:00+7s4787100 0.1 1009347
06:00+7s4886100 0.3 1009494
09:00+8s697887 0.4 1007949
12:00+9s71176100 0.1 10061250
15:00+10s8116598 0.3 10051425
18:00+8sse81376100 0.1 10041236
21:00+8sse71187100 0.4 10051166
25 september, sat
sat2500:00+8sse5989100 0.1 1004618
03:00+7se5889100 0.4 1001551
06:00+8se3695100 0.1 1006355
09:00+8sse2393100 0.2 1007296
12:00+9s1187100 0.1 1008364
15:00+12wsw127257 0.3 1008781
18:00+10wnw118045 0.3 101012
21:00+8sw228875 0.3 101115
26 september, sun
sun2600:00+9ssw2387100 0.1 101058
03:00+8w379096 0.5 1011219
06:00+7w339470 0.0 101161
09:00+9wnw228399 0.2 1010231
12:00+8ene2289100 0.4 1011196
15:00+8n2594100 2.4 1012264
18:00+8nw499396 0.6 1014456
21:00+8nnw5109250 1.0 1015371